Wind_Speed
8 8 8 9 11 12 13 14 15 15 15 14 13 11 9 8 7 6 4 3 2 1 1 2 3 4 5 6 7 9 13 16 17 17 17 17 16 14 13 12 12 12 12
7 7 7 8 9 11 12 13 14 14 15 15 14 13 11 9 8 7 5 4 3 2 2 2 2 3 4 5 5 6 9 12 16 18 18 18 18 17 16 15 14 14 13
6 6 6 6 8 9 10 12 13 14 14 15 15 14 13 12 10 9 8 6 4 3 2 2 2 2 3 4 5 5 5 7 12 16 18 18 17 16 16 15 15 15 14
3 5 5 5 6 7 9 10 11 12 13 14 14 15 15 14 13 11 10 9 7 5 4 3 3 2 2 4 5 6 5 5 7 11 13 14 13 12 13 13 13 14 14
1 3 4 4 5 6 7 8 9 10 11 12 13 14 14 15 15 14 13 12 10 8 6 5 4 3 2 2 4 6 6 5 5 7 8 9 8 9 9 10 10 11 12
3 1 2 3 3 4 5 6 7 8 9 9 10 11 13 14 14 15 14 13 12 10 8 6 5 5 3 1 2 5 6 6 5 5 6 7 7 7 7 6 7 7 8
5 4 2 2 2 2 3 4 5 5 6 6 7 8 10 11 12 13 14 14 13 11 9 8 7 5 5 3 1 3 6 7 6 6 5 5 5 5 4 4 4 4 5
6 6 4 3 2 2 2 2 3 3 3 3 4 5 6 8 10 12 12 13 13 12 10 9 7 6 5 4 2 2 4 5 6 5 4 4 3 3 4 5 5 6 6
5 7 7 5 4 3 3 3 2 2 2 1 1 2 4 5 7 8 10 11 11 11 10 9 7 6 5 4 3 2 3 4 5 4 5 5 4 4 5 6 6 6 6
4 6 7 7 7 6 5 5 4 4 4 3 2 2 2 3 4 5 6 8 9 9 9 8 7 6 5 4 3 2 1 3 4 4 5 5 5 5 6 7 8 7 7
3 5 6 8 9 10 9 8 7 7 6 6 5 4 3 3 4 4 4 5 6 7 7 7 7 6 4 3 2 1 1 2 3 4 6 6 6 7 7 8 8 8 8
5 5 6 8 10 12 13 12 11 10 10 9 8 7 6 5 5 5 5 4 4 4 5 5 6 6 5 3 2 1 1 2 2 4 7 7 7 8 8 8 9 9 9
8 8 8 9 11 12 14 14 14 14 14 13 13 12 10 9 9 9 8 7 5 5 4 4 4 4 5 4 4 3 3 3 3 5 7 8 8 9 10 10 10 10 10
10 10 11 12 13 13 14 15 16 16 16 16 16 15 14 13 12 11 12 11 9 8 6 6 5 5 5 5 4 4 4 5 6 7 9 10 11 12 13 13 14 13 13
12 12 13 13 14 15 15 16 16 17 17 18 18 18 18 17 15 15 14 15 13 12 11 9 7 7 7 7 7 6 6 7 8 9 10 12 13 14 15 16 17 17 17
15 15 15 15 16 16 17 17 17 17 18 18 19 20 20 19 19 18 18 18 17 16 15 13 12 11 10 10 10 9 9 9 10 11 12 13 15 16 18 19 20 21 21
20 18 18 18 18 18 18 19 19 19 19 19 20 21 21 21 22 22 21 21 21 19 18 16 15 15 14 14 13 12 12 12 12 13 14 16 17 18 19 20 22 23 24
25 24 22 21 21 21 20 20 21 22 21 21 21 22 22 23 24 24 24 24 24 23 22 20 19 18 17 17 16 15 14 14 15 16 17 18 19 20 21 22 23 24 25
29 28 27 25 24 24 23 23 23 23 23 23 23 23 24 24 24 24 25 26 26 25 25 24 23 22 21 20 19 18 17 17 18 19 20 20 21 22 23 23 23 24 25
33 32 31 30 28 27 27 27 27 27 26 26 26 26 26 26 26 26 26 28 28 29 29 28 27 26 24 23 21 20 20 20 21 22 23 24 24 24 25 25 25 25 25
36 35 34 34 32 31 30 30 31 32 30 29 28 27 28 28 28 29 29 30 31 31 32 31 30 28 26 24 23 22 22 23 23 24 25 26 26 25 26 25 25 25 25
38 37 36 35 34 34 33 33 35 36 35 32 30 29 29 30 29 30 30 31 32 32 33 33 32 29 27 25 24 23 24 24 25 24 25 27 27 26 27 26 25 25 24
36 36 36 35 34 34 34 35 37 37 36 35 33 31 31 32 32 31 32 33 33 33 33 34 32 29 28 26 25 25 25 25 26 25 26 27 27 26 27 27 26 24 23
33 33 33 32 33 33 34 35 37 39 39 38 38 37 36 35 35 35 35 35 34 33 33 33 33 31 29 27 26 26 26 26 27 27 27 27 28 28 27 27 27 26 23
30 30 30 30 31 32 34 35 37 40 40 40 41 41 40 39 38 38 37 37 35 34 33 33 33 33 31 29 27 26 26 26 27 27 28 28 28 28 27 27 27 28 26
30 30 30 31 32 33 35 37 38 39 42 44 45 44 42 41 41 39 37 36 36 33 34 34 35 35 32 29 27 26 26 27 28 28 28 30 29 28 27 27 27 27 27
Wind_Direction
88 99 102 97 90 81 75 72 71 71 69 66 62 58 54 52 51 52 55 57 48 17 330 285 259 250 246 244 245 239 230 225 223 223 224 225 229 236 239 243 247 251 253
89 100 110 106 99 90 81 77 75 74 72 69 65 61 56 53 50 49 50 53 52 38 11 342 302 272 261 250 243 235 230 228 228 228 230 231 235 240 244 247 249 253 255
87 97 112 115 108 99 89 82 80 78 74 71 67 63 58 55 52 47 45 45 48 45 31 10 343 307 277 258 242 233 228 227 232 233 233 233 236 240 243 246 251 255 256
90 89 104 116 116 108 98 90 85 81 77 73 69 64 59 55 53 49 44 42 42 43 40 30 13 340 292 260 241 229 222 219 228 231 230 233 232 232 239 247 253 256 256
166 92 94 107 117 115 106 97 90 85 81 77 70 65 60 56 52 50 47 44 41 40 39 36 30 20 346 261 232 225 217 213 213 217 222 230 224 226 233 244 253 261 260
222 185 107 105 118 122 116 106 98 90 83 77 69 64 59 55 51 49 48 46 44 41 39 36 31 31 31 46 199 211 215 216 215 217 225 229 222 216 223 239 256 268 266
227 226 194 146 143 146 139 127 115 102 90 78 66 59 54 51 48 46 45 46 46 43 40 39 37 38 39 51 139 188 202 211 219 229 235 230 222 204 210 235 259 275 280
227 233 226 210 200 200 189 168 149 130 110 88 66 48 43 41 40 41 42 44 46 46 44 41 41 44 48 57 94 156 190 209 218 232 247 249 252 227 237 253 259 271 276
227 233 238 234 233 234 231 227 211 189 170 155 72 22 19 20 24 30 37 42 44 45 45 43 43 44 50 58 77 124 183 209 221 234 243 250 257 258 259 265 265 266 268
236 236 244 247 248 249 247 243 239 231 220 223 243 270 321 341 353 8 22 35 40 42 42 41 40 42 46 51 59 86 163 207 217 217 236 243 253 261 266 269 269 267 268
272 252 251 251 251 252 253 250 246 243 240 241 246 253 269 290 307 328 351 9 25 32 34 34 32 31 33 39 47 71 131 197 209 210 237 243 253 260 263 266 268 269 269
299 281 271 265 259 255 255 255 251 246 245 245 248 252 259 262 274 289 301 319 344 360 11 17 21 21 17 8 2 343 276 243 231 226 246 250 257 262 262 260 261 265 267
292 287 282 278 273 266 262 261 258 253 248 246 247 249 253 255 262 275 279 282 293 309 322 333 341 352 358 353 339 317 297 283 268 255 261 261 262 263 263 261 260 262 264
286 285 284 282 282 280 275 269 267 263 256 250 250 251 253 255 259 265 270 271 272 279 285 295 304 307 315 320 317 305 293 284 277 270 270 269 268 266 265 265 265 263 263
278 282 285 287 286 286 283 278 275 272 267 261 257 256 255 257 260 261 262 265 266 269 271 273 281 287 290 293 295 294 289 284 279 275 274 273 272 270 268 267 267 266 266
277 280 284 288 290 289 288 286 282 277 274 270 265 264 262 261 261 263 263 263 263 263 267 270 271 274 278 284 286 286 287 285 285 284 281 278 276 274 273 271 269 268 268
276 278 281 284 287 288 287 286 284 280 277 275 272 270 267 266 266 266 266 266 264 263 263 268 272 274 274 277 281 283 285 283 284 285 285 284 281 279 277 275 272 270 269
279 280 279 280 282 283 284 284 284 283 280 277 275 273 272 271 270 270 270 268 266 263 262 264 269 274 275 273 273 278 283 285 285 285 285 285 284 283 282 279 276 274 271
276 278 278 278 278 279 280 280 280 279 279 277 276 275 274 274 273 273 272 269 265 262 260 263 268 272 274 272 271 274 278 281 285 286 284 283 283 284 285 284 284 281 277
274 275 276 277 276 276 276 277 277 275 275 276 277 277 276 275 273 274 273 269 265 261 259 261 267 271 272 271 270 272 275 280 284 284 283 283 282 284 285 287 287 284 281
271 272 273 275 275 275 275 275 275 274 273 275 276 277 277 277 275 275 273 271 267 261 257 259 264 267 268 269 268 269 273 278 279 281 283 284 284 285 285 286 285 284 281
268 270 272 273 274 275 275 274 273 272 272 273 275 277 276 277 277 280 278 279 273 266 258 256 259 263 265 264 263 267 271 275 279 280 281 282 284 284 285 283 282 282 281
264 265 267 269 271 273 274 275 273 272 273 274 274 275 276 277 277 278 281 284 279 272 265 259 256 260 261 260 261 264 269 273 277 279 279 281 283 282 282 284 282 280 278
260 261 263 266 270 273 275 275 274 277 276 274 274 275 276 278 279 280 283 285 282 275 269 263 258 258 257 256 259 263 267 272 275 277 279 279 281 282 282 282 282 280 277
254 256 260 264 269 273 276 277 276 276 273 272 273 275 276 279 281 282 284 285 284 277 271 264 258 255 254 254 257 261 265 269 273 277 279 280 281 282 283 281 280 279 278
255 257 260 265 269 274 276 277 275 273 272 272 274 276 276 279 281 284 284 285 283 275 269 262 256 253 251 252 255 259 264 269 272 276 278 281 283 283 283 282 278 278 278
Height
5906 5905 5905 5906 5905 5905 5905 5904 5903 5902 5901 5900 5899 5898 5898 5897 5897 5897 5896 5896 5896 5896 5896 5896 5897 5898 5898 5899 5900 5901 5903 5905 5907 5909 5911 5913 5914 5915 5916 5916 5917 5918 5918
5907 5907 5907 5907 5907 5907 5906 5906 5905 5904 5903 5902 5901 5900 5899 5899 5898 5898 5897 5897 5897 5897 5896 5896 5897 5897 5898 5899 5899 5900 5902 5903 5906 5908 5909 5911 5912 5913 5914 5915 5916 5917 5917
5908 5908 5908 5908 5908 5908 5908 5907 5907 5906 5905 5904 5903 5903 5901 5900 5900 5899 5898 5898 5897 5897 5897 5897 5897 5897 5898 5898 5899 5900 5901 5902 5904 5906 5907 5909 5910 5912 5913 5914 5915 5915 5916
5909 5909 5909 5909 5909 5909 5909 5909 5908 5908 5907 5906 5906 5905 5904 5902 5901 5900 5899 5898 5898 5898 5898 5897 5897 5897 5897 5898 5899 5900 5901 5902 5903 5904 5905 5906 5907 5910 5911 5913 5914 5914 5915
5910 5910 5910 5910 5910 5910 5910 5910 5909 5909 5909 5908 5908 5907 5906 5904 5903 5902 5900 5900 5899 5898 5898 5898 5897 5897 5897 5897 5898 5899 5901 5902 5903 5904 5905 5905 5907 5908 5910 5911 5912 5913 5913
5910 5910 5911 5911 5911 5911 5911 5911 5910 5910 5910 5910 5910 5909 5908 5906 5905 5904 5902 5901 5900 5899 5898 5898 5898 5897 5897 5897 5898 5899 5900 5902 5903 5904 5905 5906 5907 5908 5909 5911 5912 5912 5912
5910 5910 5911 5911 5911 5911 5911 5911 5911 5911 5911 5911 5911 5910 5910 5908 5907 5906 5904 5903 5901 5900 5899 5899 5898 5898 5897 5897 5898 5899 5900 5901 5903 5904 5905 5906 5907 5907 5908 5910 5911 5911 5912
5910 5910 5910 5911 5911 5911 5912 5912 5912 5912 5912 5912 5912 5911 5911 5910 5909 5908 5906 5905 5903 5902 5901 5900 5899 5899 5898 5898 5898 5899 5900 5901 5903 5904 5905 5906 5907 5907 5908 5909 5910 5911 5911
5909 5910 5910 5910 5911 5911 5912 5912 5912 5912 5912 5912 5912 5912 5912 5911 5910 5909 5908 5907 5905 5904 5902 5901 5900 5900 5899 5899 5899 5899 5900 5901 5903 5904 5905 5906 5907 5908 5908 5909 5910 5910 5911
5909 5909 5910 5910 5910 5911 5911 5912 5912 5912 5912 5912 5912 5912 5912 5912 5911 5910 5909 5908 5907 5905 5904 5903 5902 5901 5900 5899 5899 5900 5900 5901 5902 5904 5905 5905 5906 5907 5908 5908 5909 5909 5910
5909 5909 5909 5909 5910 5910 5910 5911 5911 5911 5912 5911 5911 5911 5911 5911 5911 5910 5910 5909 5908 5907 5905 5904 5903 5902 5901 5900 5900 5900 5900 5901 5902 5903 5904 5905 5905 5906 5906 5907 5908 5908 5909
5908 5908 5908 5908 5908 5909 5909 5909 5910 5910 5910 5910 5910 5910 5911 5911 5910 5910 5910 5909 5908 5907 5906 5905 5904 5903 5902 5901 5900 5900 5900 5900 5901 5903 5902 5903 5904 5905 5905 5906 5906 5907 5908
5907 5907 5907 5907 5907 5907 5907 5907 5907 5908 5908 5908 5909 5909 5909 5909 5909 5909 5908 5908 5908 5907 5906 5905 5904 5904 5903 5902 5901 5900 5900 5900 5901 5901 5901 5902 5903 5903 5904 5904 5905 5906 5906
5905 5905 5905 5905 5905 5905 5905 5904 5905 5905 5905 5906 5906 5907 5907 5907 5908 5908 5907 5907 5907 5906 5905 5905 5904 5903 5903 5902 5901 5900 5900 5900 5900 5900 5900 5901 5902 5902 5903 5903 5904 5904 5905
5903 5903 5903 5903 5903 5902 5902 5901 5902 5902 5902 5903 5903 5904 5904 5904 5905 5905 5905 5905 5905 5904 5904 5904 5903 5903 5902 5901 5900 5900 5899 5899 5899 5899 5899 5899 5900 5900 5901 5901 5902 5902 5903
5899 5900 5900 5900 5900 5900 5899 5898 5899 5899 5899 5899 5900 5900 5900 5901 5901 5902 5902 5902 5902 5902 5901 5901 5901 5901 5900 5900 5899 5898 5898 5897 5897 5897 5897 5897 5897 5897 5898 5898 5899 5899 5900
5895 5896 5897 5896 5896 5896 5896 5896 5895 5895 5895 5896 5896 5896 5897 5897 5897 5897 5898 5898 5898 5898 5898 5898 5898 5898 5898 5898 5897 5897 5896 5895 5895 5894 5894 5894 5894 5894 5894 5894 5894 5895 5896
5891 5891 5892 5893 5892 5892 5892 5892 5892 5891 5892 5892 5892 5892 5892 5892 5892 5893 5893 5894 5894 5894 5894 5894 5894 5895 5895 5895 5894 5894 5893 5892 5892 5891 5891 5891 5890 5890 5889 5889 5889 5890 5890
5885 5886 5886 5888 5888 5887 5887 5887 5887 5887 5887 5887 5887 5887 5887 5887 5887 5888 5888 5888 5889 5889 5889 5889 5890 5890 5890 5891 5891 5890 5890 5889 5888 5887 5887 5887 5886 5885 5885 5884 5884 5884 5884
5879 5880 5880 5881 5882 5882 5882 5882 5882 5881 5882 5882 5883 5882 5882 5882 5882 5882 5882 5882 5882 5883 5884 5884 5884 5885 5885 5886 5886 5886 5885 5885 5884 5883 5882 5881 5881 5881 5880 5879 5879 5879 5879
5871 5872 5873 5874 5875 5875 5876 5876 5875 5875 5875 5876 5876 5877 5876 5876 5876 5876 5875 5875 5875 5876 5877 5878 5878 5879 5879 5880 5880 5880 5880 5879 5879 5878 5877 5875 5875 5875 5875 5875 5874 5873 5873
5863 5864 5865 5866 5866 5868 5868 5868 5867 5866 5867 5868 5869 5870 5870 5869 5869 5869 5869 5868 5867 5868 5869 5870 5871 5872 5873 5873 5874 5874 5874 5874 5873 5873 5872 5870 5869 5869 5868 5868 5868 5867 5867
5854 5855 5856 5857 5858 5859 5859 5859 5857 5856 5858 5859 5860 5861 5862 5862 5861 5861 5861 5860 5860 5860 5860 5862 5863 5864 5866 5867 5867 5868 5868 5868 5867 5867 5866 5864 5863 5863 5862 5861 5862 5862 5862
5846 5847 5848 5849 5850 5850 5850 5850 5848 5847 5847 5849 5850 5851 5853 5853 5853 5853 5852 5852 5852 5852 5853 5854 5856 5857 5858 5859 5860 5861 5862 5862 5861 5860 5860 5859 5858 5857 5857 5856 5855 5855 5856
5837 5839 5840 5841 5842 5842 5843 5842 5841 5841 5839 5839 5840 5840 5841 5842 5843 5844 5844 5844 5844 5844 5845 5846 5848 5850 5851 5852 5853 5854 5854 5855 5854 5854 5853 5852 5852 5851 5851 5850 5850 5849 5849
5829 5831 5832 5833 5834 5834 5834 5834 5834 5833 5832 5831 5831 5830 5830 5832 5833 5834 5834 5835 5835 5836 5838 5839 5840 5841 5843 5845 5846 5846 5847 5848 5847 5847 5846 5844 5844 5845 5845 5844 5843 5843 5842